Location: Foulognes
(49.1413°N, 0.8183°W)
Time: 10:15:54
(UTC+00:00)

H-2A R/B - Pass Details

Date: 21 October 2019
Orbit: 734 x 836 km, 98.3° (Epoch: 11 November)

Event Time Altitude Azimuth Distance (km) Brightness Sun altitude
Exits shadow 20:23:36 49° 296° (WNW) 1,058 2.9 -33.1°
Drops below altitude 10° 20:28:03 10° 338° (NNW) 2,454 5.1 -33.7°
Sets 20:30:30 0° 343° (NNW) 3,397 5.9 -34.1°
